RH
17 19 21 23 24 25 26 27 27 28 31 32 33 33 33 33 33 34 33 31 31 31 31 31 31 31 30 29 27 25 22 17 14 10 6 5 4 4 3 3 3 3 3 3 3 2 2 2 2 2 2 2
18 20 22 24 25 26 27 28 27 30 32 33 33 34 33 33 34 34 33 31 32 32 32 32 31 31 30 28 26 23 20 15 11 8 6 5 4 3 3 3 3 3 3 3 2 2 2 2 2 2 2 2
20 22 24 25 26 27 28 28 29 31 33 33 33 34 33 33 35 34 33 32 32 32 32 32 31 30 29 27 24 21 16 13 10 7 5 4 3 3 3 3 3 3 2 2 2 2 2 2 2 2 2 2
22 23 25 26 27 29 29 28 30 32 33 34 34 34 33 34 35 34 34 33 33 33 33 32 31 30 28 25 21 18 14 10 7 6 4 4 3 3 3 3 3 2 2 2 2 2 2 2 2 2 2 2
23 25 27 27 28 29 29 29 30 32 34 34 35 34 33 34 35 35 35 34 33 33 33 32 31 30 27 23 19 15 12 8 6 5 4 3 3 3 3 3 3 2 2 2 2 2 2 2 2 2 2 2
24 26 27 28 29 30 29 30 31 33 34 34 35 34 33 35 35 35 35 34 33 33 32 32 31 30 27 22 17 13 10 7 5 4 3 3 3 3 3 3 3 2 2 2 2 2 2 2 2 2 2 2
25 27 28 29 30 30 30 30 32 33 35 35 35 33 33 35 35 35 35 34 33 33 32 31 31 30 27 22 17 12 9 6 4 4 3 3 3 3 3 2 3 2 2 2 2 2 2 3 2 2 2 2
26 28 29 30 31 31 30 31 33 34 35 35 35 33 34 35 36 35 34 34 33 33 32 31 31 30 27 22 17 12 8 6 4 4 3 3 3 2 3 2 3 2 2 2 3 3 2 3 2 2 2 2
28 29 30 31 32 31 31 32 33 34 35 36 35 34 34 35 36 35 34 33 33 33 32 31 31 30 28 24 18 12 8 5 4 4 3 3 3 3 3 3 3 2 3 2 3 3 3 3 3 2 2 2
29 29 30 31 33 32 31 33 34 35 36 36 35 34 34 35 36 35 34 33 33 33 32 31 31 30 29 26 20 13 8 6 4 3 3 3 3 3 3 3 3 3 3 3 3 3 3 2 2 2 2 2
30 30 31 32 33 33 32 33 34 35 36 36 36 34 34 35 36 36 35 34 33 32 32 31 31 31 30 28 23 16 10 6 4 3 3 3 3 3 3 3 3 3 3 3 3 3 2 2 2 2 2 2
32 32 32 33 34 34 33 33 35 35 36 37 36 35 34 35 36 37 36 35 34 33 32 32 31 31 30 29 27 21 14 8 6 4 4 3 3 3 3 3 3 3 3 3 3 2 2 2 2 2 2 2
34 33 32 34 35 36 35 34 35 36 37 37 37 36 34 35 36 37 37 36 35 33 32 32 32 31 31 30 29 26 18 12 9 6 5 4 4 4 3 3 3 3 3 3 3 2 3 2 2 2 2 2
36 35 34 34 36 37 36 34 35 36 37 37 37 37 35 35 36 37 38 37 36 34 33 33 32 32 31 31 30 29 23 17 12 9 7 7 6 5 4 3 3 3 3 2 3 2 2 2 2 2 2 2
39 37 35 35 37 38 36 34 35 36 37 38 38 38 36 36 36 37 38 38 37 36 35 34 33 33 32 31 31 30 27 23 18 13 10 10 8 6 5 4 3 3 3 2 2 2 2 2 2 2 2 2
42 40 38 36 37 39 38 35 35 37 38 38 38 38 38 36 36 38 39 38 38 37 36 35 34 34 32 32 32 31 30 28 23 19 15 14 12 10 8 6 4 3 3 3 2 2 2 2 2 2 2 2
43 43 41 38 38 40 39 36 36 37 38 39 39 39 38 37 37 37 39 39 39 39 38 37 36 35 34 33 32 32 32 30 28 24 21 19 17 15 13 10 7 5 4 4 3 2 2 2 2 2 2 2
45 46 44 40 39 41 40 37 36 38 39 39 40 39 39 38 37 37 39 40 40 40 40 39 38 36 35 34 33 33 33 32 30 27 25 23 21 19 17 14 12 9 7 6 5 4 3 2 2 1 1 1
48 48 46 42 40 41 41 39 36 38 39 40 41 40 40 39 38 37 38 40 40 41 41 41 40 38 37 36 35 34 34 33 31 29 28 26 25 23 21 19 16 13 11 9 8 6 5 4 3 2 2 1
47 49 49 45 41 40 41 40 37 38 39 40 41 41 40 40 39 38 38 40 41 41 42 42 42 41 40 38 37 36 36 35 33 32 30 29 28 26 25 22 19 17 14 12 11 9 8 6 5 3 3 2
44 48 51 48 43 40 41 41 38 38 39 40 41 42 41 41 40 39 38 39 41 42 43 43 44 43 42 41 39 38 38 37 36 34 33 32 31 29 28 25 23 20 17 15 13 12 11 9 8 6 5 4
42 45 51 51 45 41 40 41 40 38 38 40 41 42 42 42 42 41 40 39 40 42 43 44 45 45 44 43 42 41 40 39 39 37 36 36 34 32 31 29 26 23 21 18 16 14 13 12 11 10 8 6
42 45 50 53 49 42 40 41 41 39 39 40 42 44 44 44 44 44 42 40 40 42 43 44 45 46 46 46 45 43 43 42 42 41 40 39 37 35 34 32 29 27 24 22 19 17 15 14 13 12 10 7
44 46 50 55 54 47 42 42 43 42 41 41 43 45 47 46 46 46 45 42 40 41 43 45 45 47 47 47 47 46 46 45 45 45 44 42 41 39 37 35 33 30 28 26 24 22 20 17 14 12 11 9
50 52 54 58 59 54 47 45 46 46 45 44 45 47 49 50 49 49 48 45 42 41 42 44 46 47 48 49 49 49 48 48 48 48 47 46 45 43 41 38 36 34 31 29 27 25 23 21 16 14 13 11
56 59 61 61 63 61 54 48 48 50 49 48 47 48 50 52 52 51 50 48 45 42 42 44 46 47 48 49 50 50 50 50 50 50 50 50 48 46 44 42 39 37 34 32 31 29 25 22 20 18 17 14
62 63 66 66 65 65 60 54 49 48 49 48 47 47 49 51 52 52 51 50 48 45 43 44 46 48 49 49 50 51 52 52 52 53 53 53 52 50 48 46 43 41 38 37 35 32 28 25 23 21 19 16
72 69 70 69 68 69 68 62 55 50 47 46 46 46 46 48 50 52 52 52 51 49 46 44 46 48 49 50 51 51 52 52 53 54 54 55 55 53 51 49 47 45 43 42 39 35 32 29 26 22 19 18
75 76 75 72 70 73 75 73 67 59 53 50 50 50 49 48 49 52 53 54 55 54 50 46 46 47 49 50 51 51 52 52 53 54 54 56 56 55 54 52 50 48 47 45 44 40 35 31 28 24 23 22
73 77 79 77 75 76 80 84 82 76 69 66 64 62 59 54 51 51 53 56 58 58 55 50 47 47 49 50 51 51 52 53 53 54 54 55 55 56 56 55 53 51 49 48 47 44 39 35 32 28 25 22
76 79 81 84 86 86 86 88 90 90 85 79 73 66 62 59 54 51 52 56 58 60 58 55 50 48 48 50 51 52 52 53 54 54 54 55 55 56 57 56 55 53 51 50 48 45 42 39 36 31 26 21
Wind_Speed
13 13 12 12 11 10 9 9 8 8 7 6 7 7 7 7 7 8 9 9 9 9 10 10 9 9 9 8 8 8 7 7 6 5 4 4 4 4 4 4 4 5 5 5 4 4 4 4 4 4 4 5
13 12 12 12 11 10 9 9 8 8 7 7 7 7 6 7 7 8 9 9 9 9 9 9 9 8 8 9 8 8 7 6 6 5 4 4 3 3 4 4 4 5 5 5 5 5 5 4 4 5 5 5
13 12 12 12 11 10 10 9 8 8 8 7 8 7 6 7 7 7 8 9 8 8 8 8 8 8 8 8 8 7 7 6 5 4 4 4 3 3 3 4 4 5 5 5 5 5 5 5 5 5 5 6
13 12 12 12 11 11 10 9 9 9 8 8 8 7 6 7 6 7 8 8 8 8 8 8 8 8 8 8 8 7 6 6 5 4 4 4 3 3 3 4 5 5 5 5 6 5 5 5 5 5 6 6
13 13 13 12 12 11 11 10 10 9 8 8 7 7 7 7 6 7 7 8 9 9 8 8 8 8 8 9 8 7 6 6 5 4 4 3 3 3 4 4 4 5 5 6 6 6 5 5 5 6 6 7
13 14 13 13 12 12 11 11 10 10 9 8 7 7 7 6 6 7 7 8 8 9 9 8 8 8 8 8 8 8 7 6 5 4 4 3 3 4 4 4 4 4 5 5 6 6 6 6 6 7 7 8
14 14 14 13 13 13 12 11 11 10 10 9 7 7 7 6 6 7 7 8 8 9 9 9 9 8 8 8 8 8 8 7 5 4 4 4 4 5 5 5 4 4 5 5 6 6 6 6 7 7 8 9
15 14 14 14 14 13 13 12 12 11 10 9 8 8 7 6 6 6 7 7 8 8 9 9 9 9 8 8 8 8 8 7 6 5 4 4 5 5 5 5 5 5 5 5 6 5 6 6 7 8 9 10
15 15 15 14 14 14 13 13 12 12 11 10 8 8 7 6 6 6 6 7 7 8 8 9 9 9 9 8 8 8 8 8 7 6 5 5 5 6 5 5 5 5 5 6 6 6 6 6 7 8 9 10
16 15 15 15 15 15 14 14 13 13 12 10 9 9 8 7 6 6 6 6 7 7 8 8 9 9 9 9 9 9 9 8 7 6 6 6 6 6 5 5 5 6 6 6 6 6 7 7 8 8 9 10
16 16 16 16 15 15 15 15 14 14 13 11 10 10 9 7 6 6 6 6 6 7 8 8 9 9 9 9 9 10 9 9 8 7 6 6 6 6 5 5 6 6 6 6 6 7 7 7 8 9 9 10
17 17 17 16 16 15 16 16 15 15 14 13 11 10 10 8 7 7 7 6 6 6 7 8 8 8 9 9 9 10 10 10 9 8 7 7 6 6 6 6 6 6 6 6 7 7 8 8 9 9 10 10
17 18 17 17 16 16 17 17 16 16 15 14 12 11 10 9 8 8 7 7 6 6 6 7 8 8 8 8 8 9 10 10 9 9 8 7 7 6 6 6 6 7 7 7 7 8 8 9 9 10 10 11
18 19 18 17 17 17 18 18 17 17 16 15 13 12 11 10 9 9 8 8 6 6 6 7 7 8 8 8 8 9 9 10 10 9 9 8 7 7 7 7 7 7 7 7 8 8 9 10 10 10 11 11
19 19 19 18 18 18 19 19 18 18 17 16 15 13 12 11 11 10 9 9 7 6 6 6 7 7 7 8 8 8 9 10 10 10 9 8 8 7 7 7 7 7 7 8 8 9 9 10 10 11 11 12
19 20 20 19 18 19 20 20 19 19 18 17 16 15 13 12 12 11 11 10 9 8 7 6 6 7 7 7 7 8 8 9 10 10 9 9 9 8 8 8 8 8 8 9 9 10 10 11 11 11 12 13
20 20 20 20 19 20 21 21 20 20 20 19 17 16 15 14 13 13 12 12 11 10 8 7 7 7 7 7 7 7 8 9 9 10 10 9 9 9 9 9 9 9 9 9 10 10 11 11 12 12 13 13
20 21 21 21 20 21 22 22 21 21 21 20 19 18 16 15 14 14 14 14 13 12 10 9 8 8 7 7 7 7 7 8 9 9 9 9 9 9 9 9 9 10 10 10 11 11 12 12 12 13 14 14
21 21 22 22 22 22 23 23 22 22 22 21 21 19 18 17 16 15 15 15 15 14 13 11 10 9 8 8 7 8 7 8 9 9 9 9 9 10 10 10 10 10 11 11 11 12 12 13 13 14 14 15
21 22 22 23 23 22 23 24 23 23 23 23 22 21 20 18 17 17 17 17 17 16 15 14 12 11 10 9 9 8 8 8 9 10 10 9 9 10 10 10 11 11 11 12 12 12 13 13 14 14 15 16
21 22 23 24 24 23 23 24 24 23 23 23 23 23 22 20 19 19 18 18 18 18 17 16 14 13 12 11 10 10 9 9 10 10 11 10 10 10 11 11 11 12 12 12 13 13 13 14 14 15 16 16
20 21 23 24 24 24 23 24 24 23 24 24 24 25 24 22 21 20 20 20 20 19 19 18 16 15 14 13 12 11 11 11 11 11 12 12 11 11 11 12 12 13 13 14 14 14 14 15 15 15 16 17
21 21 23 24 24 24 23 23 24 24 24 25 25 26 26 24 23 22 21 21 21 20 20 19 18 17 16 15 14 13 13 12 12 13 13 13 13 12 12 13 13 14 14 15 15 16 16 16 16 16 17 17
22 23 24 24 24 23 22 22 23 24 25 25 26 27 27 27 25 23 22 22 22 22 21 21 20 19 18 17 16 15 14 14 14 14 14 14 14 14 14 14 14 15 15 16 16 17 17 18 18 18 18 18
24 24 24 24 24 23 22 23 23 24 25 26 27 28 29 29 27 25 24 23 23 23 23 22 22 21 20 19 18 17 16 16 15 15 15 16 16 16 16 16 16 16 17 17 17 18 18 19 19 19 20 20
25 26 26 25 25 24 25 25 24 25 26 27 28 29 30 30 29 28 26 25 24 24 24 24 23 23 22 21 20 19 18 18 17 17 17 17 17 17 17 17 17 18 18 19 19 19 19 19 20 20 21 22
26 26 27 27 26 26 27 27 27 27 27 29 29 30 30 31 31 30 28 27 26 26 26 25 25 24 24 23 22 21 20 20 19 18 18 18 19 19 19 19 19 19 20 20 21 21 21 21 21 22 22 23
27 27 28 27 27 28 28 28 28 28 28 28 29 30 30 30 31 31 30 29 28 27 27 26 26 26 26 25 25 24 22 21 21 20 20 20 20 20 20 20 20 21 21 22 22 22 22 22 23 23 23 24
27 28 28 28 28 28 29 29 28 27 26 26 27 28 29 30 31 32 33 32 30 29 28 28 28 28 27 27 27 26 24 24 23 22 21 21 21 21 21 21 21 21 22 23 23 23 23 24 24 24 25 26
26 27 28 29 29 29 29 29 28 27 26 26 26 27 28 30 32 33 34 34 33 31 30 30 30 29 29 29 28 28 27 26 25 24 23 23 23 22 22 22 22 23 23 24 24 25 25 25 25 26 26 27
23 25 27 29 30 30 30 29 28 28 28 29 29 30 30 31 32 34 34 35 35 34 33 32 31 31 30 30 30 30 29 28 27 26 25 25 24 23 23 23 23 24 25 25 25 26 26 27 27 27 28 28
Wind_Direction
267 269 268 267 266 266 262 255 254 255 255 256 262 271 287 304 313 317 319 322 326 323 318 317 315 313 310 306 304 301 299 296 293 289 285 284 284 288 290 289 290 291 290 285 284 285 284 282 282 284 290 294
263 263 264 264 264 262 254 248 248 248 250 255 264 275 296 308 315 321 322 325 328 326 320 317 315 313 311 307 305 302 298 293 289 287 284 284 285 285 285 288 290 290 287 286 286 284 279 277 279 284 290 292
260 259 261 261 261 257 248 243 243 243 246 254 265 278 297 302 311 324 324 326 328 326 319 316 315 314 312 308 304 301 297 294 291 291 288 285 282 281 286 291 290 287 286 287 284 279 276 276 278 282 287 290
258 257 257 257 256 251 244 239 239 241 242 252 265 279 294 298 310 325 326 326 328 328 325 321 320 318 317 312 307 302 298 296 292 291 290 286 284 287 294 296 291 288 287 284 279 275 274 275 278 282 284 288
256 253 252 253 253 248 242 237 237 239 241 250 263 277 287 295 312 323 326 329 330 331 332 329 328 327 323 318 313 309 305 298 291 290 292 291 294 299 298 293 288 287 286 282 280 277 278 281 282 285 286 288
252 250 250 251 250 246 239 235 236 238 241 249 260 273 281 294 311 321 327 331 333 333 333 333 332 331 328 322 317 315 310 303 299 298 299 302 307 303 294 288 282 280 279 278 279 279 281 286 288 291 294 295
250 249 249 248 247 243 236 234 235 236 240 247 258 270 279 294 308 319 327 331 333 333 332 334 333 333 331 327 322 316 311 305 302 304 306 313 310 299 291 282 274 270 268 270 272 276 283 289 295 300 302 303
250 249 247 245 245 240 234 233 233 235 239 245 255 265 276 289 301 314 324 327 332 334 334 334 334 334 334 331 326 318 311 305 304 310 315 316 307 294 286 279 275 273 270 270 270 276 284 292 300 303 306 306
250 248 246 245 243 238 233 233 232 234 238 242 251 260 268 279 292 307 316 322 329 334 336 336 336 335 335 334 328 320 313 310 310 316 318 312 302 291 284 282 282 281 278 277 278 283 290 295 301 303 305 306
250 249 247 245 243 238 232 233 232 232 237 240 246 254 260 269 284 298 308 316 326 334 336 337 338 336 336 336 330 324 317 314 315 317 316 306 295 288 288 289 286 284 281 283 287 292 297 300 301 302 304 305
251 249 247 246 244 238 234 234 233 232 235 238 242 249 254 262 275 288 299 308 321 332 336 337 338 338 337 336 331 326 321 317 317 316 311 303 297 294 294 293 288 285 285 288 292 295 298 299 299 300 302 303
251 250 248 247 244 238 234 234 233 233 234 236 240 246 251 257 267 278 289 299 314 327 333 334 336 338 336 335 331 327 323 320 317 315 311 306 304 304 301 297 293 292 292 293 294 296 297 298 299 300 301 302
250 250 249 247 244 237 234 234 233 233 234 236 239 244 248 253 260 268 279 289 303 317 325 330 331 334 334 334 331 327 324 320 316 314 312 310 309 309 304 299 297 296 296 296 297 299 299 300 301 302 302 302
250 251 250 247 244 238 235 235 234 233 234 235 238 242 246 250 256 261 271 279 290 303 314 321 325 328 331 332 331 329 325 320 317 315 312 312 312 310 306 302 299 298 299 300 301 302 302 303 304 304 304 303
250 252 251 249 245 240 237 236 235 234 234 235 238 241 244 248 253 257 265 271 277 287 297 308 316 320 325 327 328 328 325 322 319 315 314 314 315 312 309 308 306 305 305 304 304 304 304 305 306 306 305 304
250 252 252 250 247 242 239 237 235 234 235 236 237 241 243 246 251 255 260 265 269 274 281 291 301 307 314 319 322 324 324 322 319 316 315 315 317 316 314 313 311 310 310 308 307 305 306 306 306 307 305 304
250 251 252 251 248 244 240 238 236 236 236 237 238 241 243 245 249 253 256 261 264 267 271 277 285 293 299 306 312 316 319 318 316 315 314 315 317 317 318 315 314 313 311 309 308 307 307 307 306 306 304 303
251 251 252 252 249 246 241 239 237 237 237 238 239 241 242 244 247 251 254 257 261 263 266 270 274 280 285 292 298 304 310 311 311 311 311 314 315 317 318 316 315 313 310 308 307 307 306 306 305 305 304 303
250 250 251 251 249 247 242 239 239 238 238 239 240 241 242 243 245 249 252 255 258 261 263 266 268 272 275 279 284 290 297 301 303 304 306 309 312 314 314 313 312 310 308 307 306 305 305 305 305 304 304 303
248 248 249 250 249 248 243 240 239 239 239 240 241 243 244 243 245 247 250 253 256 258 261 263 265 268 270 272 275 279 284 290 293 296 298 301 303 306 307 308 308 307 306 305 304 304 304 304 304 304 304 304
248 248 248 249 249 249 245 242 241 241 241 242 243 244 245 245 245 246 249 252 254 256 259 261 263 265 267 268 269 272 276 281 284 287 290 292 295 297 300 302 303 303 303 302 302 302 303 304 304 305 305 305
250 250 249 249 249 250 248 245 242 242 243 243 244 245 246 247 247 247 248 250 252 254 257 259 262 263 265 265 266 267 270 274 278 281 284 286 289 291 294 297 299 300 300 301 300 300 302 302 303 304 304 304
253 253 251 251 251 252 251 248 245 244 245 245 245 246 247 248 249 249 249 250 252 253 255 257 260 261 263 264 264 265 266 269 273 277 281 283 286 288 291 293 296 297 298 299 300 300 302 302 302 303 303 303
257 255 254 254 255 256 256 253 249 247 246 246 246 247 248 249 250 250 250 251 251 253 254 255 258 260 261 262 263 264 264 267 270 275 279 282 285 287 289 291 293 295 297 298 299 301 302 302 302 303 303 302
258 256 256 256 256 256 256 254 252 249 248 249 248 248 248 249 250 251 252 252 252 252 253 254 255 257 259 260 262 263 264 266 269 273 276 280 284 286 288 290 293 295 296 296 298 300 301 301 302 302 302 301
259 257 256 255 253 251 250 249 248 246 246 246 247 247 247 248 249 251 253 254 253 253 253 253 254 255 257 258 260 262 264 266 268 271 275 279 282 285 288 290 292 294 295 296 297 299 299 300 301 301 301 299
262 259 256 255 253 250 249 248 247 246 245 244 245 246 247 248 249 250 252 254 255 255 253 252 252 253 255 257 259 261 263 265 268 270 273 276 280 284 287 289 292 294 294 295 297 298 298 298 299 299 299 298
262 260 259 257 255 253 251 250 251 251 250 250 250 251 251 251 251 251 252 253 255 256 255 253 252 252 253 255 258 260 262 265 267 269 272 275 279 282 285 287 290 292 293 295 295 296 297 297 297 297 296 296
261 261 261 260 257 255 254 254 255 257 260 262 262 261 259 257 255 253 252 252 254 256 257 255 253 253 252 254 256 259 261 264 266 269 272 274 276 279 283 285 288 290 291 293 294 295 295 295 295 295 295 296
261 260 260 261 260 259 258 257 257 260 262 263 263 260 258 256 255 254 253 253 253 255 257 256 255 254 253 253 255 258 260 263 266 268 270 272 275 278 281 283 286 287 289 290 292 293 293 293 293 293 294 294
265 263 262 261 262 261 260 259 257 257 257 257 256 254 252 252 252 253 253 253 252 254 256 256 256 255 255 255 255 256 259 263 265 267 269 271 274 276 278 281 283 284 286 288 290 291 292 292 292 292 292 292